Main page
METAR-TAF:

METAR-TAF

Airports :

TSTC Waco Airport

Waco, Texas, United States

latitude: 31-38-16N, longitude: 097-04-27W, elevation: 469 ft

Current weather observation

The report was made 1 hour and 9 minutes ago, at 12:55 UTC
Calm wind
Temperature 77°F
Humidity 83%
Pressure 30.01 in. Hg
Visibility: 10 miles
Clear sky

METAR: KCNW 231255Z 00000KT 10SM SKC 25/22 A3001

Time: 08:04 (14:04 UTC)


TAF: missing

Weather observations and forecasts of more than 4000 airports (METAR and TAF reports).

The available stations are represented by yellow and red dots on the map.

Hover mouse over dot to see the name of the station.

Then click to see weather observations and forecasts.

To change the map : click on the green buttons with a black cross to zoom in, on the green button with a dash to zoom out, or on the green arrows for adjacent maps.


METAR-TAF: